Index of /20260427/WXO-DD/model_rdps/10km/18/022
Name Last modified Size Description
Parent Directory -
20260427T18Z_MSC_RDPS_AbsoluteVorticity_IsbL-0250_RLatLon0.09_PT022H.grib2 2026-04-27 20:45 628K
20260427T18Z_MSC_RDPS_AbsoluteVorticity_IsbL-0500_RLatLon0.09_PT022H.grib2 2026-04-27 20:45 568K
20260427T18Z_MSC_RDPS_AbsoluteVorticity_IsbL-0700_RLatLon0.09_PT022H.grib2 2026-04-27 20:45 620K
20260427T18Z_MSC_RDPS_AbsoluteVorticity_IsbL-0850_RLatLon0.09_PT022H.grib2 2026-04-27 20:45 780K
20260427T18Z_MSC_RDPS_AirTemp_AGL-120m_RLatLon0.09_PT022H.grib2 2026-04-27 20:45 385K
20260427T18Z_MSC_RDPS_AirTemp_AGL-2m_RLatLon0.09_PT022H.grib2 2026-04-27 20:45 640K
20260427T18Z_MSC_RDPS_AirTemp_AGL-40m_RLatLon0.09_PT022H.grib2 2026-04-27 20:45 396K
20260427T18Z_MSC_RDPS_AirTemp_AGL-80m_RLatLon0.09_PT022H.grib2 2026-04-27 20:45 390K
20260427T18Z_MSC_RDPS_AirTemp_IsbL-0001_RLatLon0.09_PT022H.grib2 2026-04-27 20:45 323K
20260427T18Z_MSC_RDPS_AirTemp_IsbL-0005_RLatLon0.09_PT022H.grib2 2026-04-27 20:45 296K
20260427T18Z_MSC_RDPS_AirTemp_IsbL-0010_RLatLon0.09_PT022H.grib2 2026-04-27 20:45 306K
20260427T18Z_MSC_RDPS_AirTemp_IsbL-0020_RLatLon0.09_PT022H.grib2 2026-04-27 20:45 322K
20260427T18Z_MSC_RDPS_AirTemp_IsbL-0030_RLatLon0.09_PT022H.grib2 2026-04-27 20:45 340K
20260427T18Z_MSC_RDPS_AirTemp_IsbL-0050_RLatLon0.09_PT022H.grib2 2026-04-27 20:45 318K
20260427T18Z_MSC_RDPS_AirTemp_IsbL-0100_RLatLon0.09_PT022H.grib2 2026-04-27 20:45 431K
20260427T18Z_MSC_RDPS_AirTemp_IsbL-0150_RLatLon0.09_PT022H.grib2 2026-04-27 20:45 433K
20260427T18Z_MSC_RDPS_AirTemp_IsbL-0175_RLatLon0.09_PT022H.grib2 2026-04-27 20:45 423K
20260427T18Z_MSC_RDPS_AirTemp_IsbL-0200_RLatLon0.09_PT022H.grib2 2026-04-27 20:45 423K
20260427T18Z_MSC_RDPS_AirTemp_IsbL-0225_RLatLon0.09_PT022H.grib2 2026-04-27 20:45 424K
20260427T18Z_MSC_RDPS_AirTemp_IsbL-0250_RLatLon0.09_PT022H.grib2 2026-04-27 20:45 434K
20260427T18Z_MSC_RDPS_AirTemp_IsbL-0275_RLatLon0.09_PT022H.grib2 2026-04-27 20:45 415K
20260427T18Z_MSC_RDPS_AirTemp_IsbL-0300_RLatLon0.09_PT022H.grib2 2026-04-27 20:45 418K
20260427T18Z_MSC_RDPS_AirTemp_IsbL-0350_RLatLon0.09_PT022H.grib2 2026-04-27 20:45 429K
20260427T18Z_MSC_RDPS_AirTemp_IsbL-0400_RLatLon0.09_PT022H.grib2 2026-04-27 20:45 429K
20260427T18Z_MSC_RDPS_AirTemp_IsbL-0450_RLatLon0.09_PT022H.grib2 2026-04-27 20:45 435K
20260427T18Z_MSC_RDPS_AirTemp_IsbL-0500_RLatLon0.09_PT022H.grib2 2026-04-27 20:45 409K
20260427T18Z_MSC_RDPS_AirTemp_IsbL-0550_RLatLon0.09_PT022H.grib2 2026-04-27 20:45 427K
20260427T18Z_MSC_RDPS_AirTemp_IsbL-0600_RLatLon0.09_PT022H.grib2 2026-04-27 20:45 442K
20260427T18Z_MSC_RDPS_AirTemp_IsbL-0650_RLatLon0.09_PT022H.grib2 2026-04-27 20:45 456K
20260427T18Z_MSC_RDPS_AirTemp_IsbL-0700_RLatLon0.09_PT022H.grib2 2026-04-27 20:45 481K
20260427T18Z_MSC_RDPS_AirTemp_IsbL-0750_RLatLon0.09_PT022H.grib2 2026-04-27 20:45 410K
20260427T18Z_MSC_RDPS_AirTemp_IsbL-0800_RLatLon0.09_PT022H.grib2 2026-04-27 20:45 459K
20260427T18Z_MSC_RDPS_AirTemp_IsbL-0850_RLatLon0.09_PT022H.grib2 2026-04-27 20:45 510K
20260427T18Z_MSC_RDPS_AirTemp_IsbL-0875_RLatLon0.09_PT022H.grib2 2026-04-27 20:45 528K
20260427T18Z_MSC_RDPS_AirTemp_IsbL-0900_RLatLon0.09_PT022H.grib2 2026-04-27 20:45 535K
20260427T18Z_MSC_RDPS_AirTemp_IsbL-0925_RLatLon0.09_PT022H.grib2 2026-04-27 20:45 534K
20260427T18Z_MSC_RDPS_AirTemp_IsbL-0950_RLatLon0.09_PT022H.grib2 2026-04-27 20:45 539K
20260427T18Z_MSC_RDPS_AirTemp_IsbL-0970_RLatLon0.09_PT022H.grib2 2026-04-27 20:45 535K
20260427T18Z_MSC_RDPS_AirTemp_IsbL-0985_RLatLon0.09_PT022H.grib2 2026-04-27 20:45 523K
20260427T18Z_MSC_RDPS_AirTemp_IsbL-1000_RLatLon0.09_PT022H.grib2 2026-04-27 20:45 506K
20260427T18Z_MSC_RDPS_AirTemp_IsbL-1015_RLatLon0.09_PT022H.grib2 2026-04-27 20:45 504K
20260427T18Z_MSC_RDPS_Albedo_Sfc_RLatLon0.09_PT022H.grib2 2026-04-27 20:45 163K
20260427T18Z_MSC_RDPS_CAPE_Sfc_RLatLon0.09_PT022H.grib2 2026-04-27 20:45 1.8M
20260427T18Z_MSC_RDPS_CIN_Sfc_RLatLon0.09_PT022H.grib2 2026-04-27 20:45 1.1M
20260427T18Z_MSC_RDPS_CloudWater_EAtm_RLatLon0.09_PT022H.grib2 2026-04-27 20:45 219K
20260427T18Z_MSC_RDPS_ConvectivePrecip-Accum_Sfc_RLatLon0.09_PT022H.grib2 2026-04-27 20:45 889K
20260427T18Z_MSC_RDPS_DewPointDepression_AGL-2m_RLatLon0.09_PT022H.grib2 2026-04-27 20:45 421K
20260427T18Z_MSC_RDPS_DewPointDepression_IsbL-0001_RLatLon0.09_PT022H.grib2 2026-04-27 20:45 193
20260427T18Z_MSC_RDPS_DewPointDepression_IsbL-0005_RLatLon0.09_PT022H.grib2 2026-04-27 20:45 193
20260427T18Z_MSC_RDPS_DewPointDepression_IsbL-0010_RLatLon0.09_PT022H.grib2 2026-04-27 20:45 193
20260427T18Z_MSC_RDPS_DewPointDepression_IsbL-0020_RLatLon0.09_PT022H.grib2 2026-04-27 20:45 193
20260427T18Z_MSC_RDPS_DewPointDepression_IsbL-0030_RLatLon0.09_PT022H.grib2 2026-04-27 20:45 193
20260427T18Z_MSC_RDPS_DewPointDepression_IsbL-0050_RLatLon0.09_PT022H.grib2 2026-04-27 20:45 86K
20260427T18Z_MSC_RDPS_DewPointDepression_IsbL-0100_RLatLon0.09_PT022H.grib2 2026-04-27 20:45 130K
20260427T18Z_MSC_RDPS_DewPointDepression_IsbL-0150_RLatLon0.09_PT022H.grib2 2026-04-27 20:45 150K
20260427T18Z_MSC_RDPS_DewPointDepression_IsbL-0175_RLatLon0.09_PT022H.grib2 2026-04-27 20:45 177K
20260427T18Z_MSC_RDPS_DewPointDepression_IsbL-0200_RLatLon0.09_PT022H.grib2 2026-04-27 20:45 213K
20260427T18Z_MSC_RDPS_DewPointDepression_IsbL-0225_RLatLon0.09_PT022H.grib2 2026-04-27 20:45 262K
20260427T18Z_MSC_RDPS_DewPointDepression_IsbL-0250_RLatLon0.09_PT022H.grib2 2026-04-27 20:45 303K
20260427T18Z_MSC_RDPS_DewPointDepression_IsbL-0275_RLatLon0.09_PT022H.grib2 2026-04-27 20:45 309K
20260427T18Z_MSC_RDPS_DewPointDepression_IsbL-0300_RLatLon0.09_PT022H.grib2 2026-04-27 20:45 327K
20260427T18Z_MSC_RDPS_DewPointDepression_IsbL-0350_RLatLon0.09_PT022H.grib2 2026-04-27 20:45 332K
20260427T18Z_MSC_RDPS_DewPointDepression_IsbL-0400_RLatLon0.09_PT022H.grib2 2026-04-27 20:45 345K
20260427T18Z_MSC_RDPS_DewPointDepression_IsbL-0450_RLatLon0.09_PT022H.grib2 2026-04-27 20:45 353K
20260427T18Z_MSC_RDPS_DewPointDepression_IsbL-0500_RLatLon0.09_PT022H.grib2 2026-04-27 20:45 357K
20260427T18Z_MSC_RDPS_DewPointDepression_IsbL-0550_RLatLon0.09_PT022H.grib2 2026-04-27 20:45 367K
20260427T18Z_MSC_RDPS_DewPointDepression_IsbL-0600_RLatLon0.09_PT022H.grib2 2026-04-27 20:45 376K
20260427T18Z_MSC_RDPS_DewPointDepression_IsbL-0650_RLatLon0.09_PT022H.grib2 2026-04-27 20:45 381K
20260427T18Z_MSC_RDPS_DewPointDepression_IsbL-0700_RLatLon0.09_PT022H.grib2 2026-04-27 20:45 392K
20260427T18Z_MSC_RDPS_DewPointDepression_IsbL-0750_RLatLon0.09_PT022H.grib2 2026-04-27 20:45 416K
20260427T18Z_MSC_RDPS_DewPointDepression_IsbL-0800_RLatLon0.09_PT022H.grib2 2026-04-27 20:45 450K
20260427T18Z_MSC_RDPS_DewPointDepression_IsbL-0850_RLatLon0.09_PT022H.grib2 2026-04-27 20:45 474K
20260427T18Z_MSC_RDPS_DewPointDepression_IsbL-0875_RLatLon0.09_PT022H.grib2 2026-04-27 20:45 478K
20260427T18Z_MSC_RDPS_DewPointDepression_IsbL-0900_RLatLon0.09_PT022H.grib2 2026-04-27 20:45 469K
20260427T18Z_MSC_RDPS_DewPointDepression_IsbL-0925_RLatLon0.09_PT022H.grib2 2026-04-27 20:45 458K
20260427T18Z_MSC_RDPS_DewPointDepression_IsbL-0950_RLatLon0.09_PT022H.grib2 2026-04-27 20:45 452K
20260427T18Z_MSC_RDPS_DewPointDepression_IsbL-0970_RLatLon0.09_PT022H.grib2 2026-04-27 20:45 445K
20260427T18Z_MSC_RDPS_DewPointDepression_IsbL-0985_RLatLon0.09_PT022H.grib2 2026-04-27 20:45 441K
20260427T18Z_MSC_RDPS_DewPointDepression_IsbL-1000_RLatLon0.09_PT022H.grib2 2026-04-27 20:45 437K
20260427T18Z_MSC_RDPS_DewPointDepression_IsbL-1015_RLatLon0.09_PT022H.grib2 2026-04-27 20:45 432K
20260427T18Z_MSC_RDPS_DewPoint_AGL-2m_RLatLon0.09_PT022H.grib2 2026-04-27 20:45 409K
20260427T18Z_MSC_RDPS_DownwardLongwaveRadiationFlux-Accum_Sfc_RLatLon0.09_PT022H.grib2 2026-04-27 20:45 429K
20260427T18Z_MSC_RDPS_DownwardShortwaveRadiationFlux-Accum_NTAtm_RLatLon0.09_PT022H.grib2 2026-04-27 20:45 119K
20260427T18Z_MSC_RDPS_DownwardShortwaveRadiationFlux-Accum_Sfc_RLatLon0.09_PT022H.grib2 2026-04-27 20:45 615K
20260427T18Z_MSC_RDPS_FreezingRain-Accum1h_Sfc_RLatLon0.09_PT022H.grib2 2026-04-27 20:45 28K
20260427T18Z_MSC_RDPS_FreezingRain-Accum_Sfc_RLatLon0.09_PT022H.grib2 2026-04-27 20:45 100K
20260427T18Z_MSC_RDPS_GeopotentialHeight_IsbL-0001_RLatLon0.09_PT022H.grib2 2026-04-27 20:45 276K
20260427T18Z_MSC_RDPS_GeopotentialHeight_IsbL-0005_RLatLon0.09_PT022H.grib2 2026-04-27 20:45 314K
20260427T18Z_MSC_RDPS_GeopotentialHeight_IsbL-0010_RLatLon0.09_PT022H.grib2 2026-04-27 20:45 343K
20260427T18Z_MSC_RDPS_GeopotentialHeight_IsbL-0020_RLatLon0.09_PT022H.grib2 2026-04-27 20:45 309K
20260427T18Z_MSC_RDPS_GeopotentialHeight_IsbL-0030_RLatLon0.09_PT022H.grib2 2026-04-27 20:45 312K
20260427T18Z_MSC_RDPS_GeopotentialHeight_IsbL-0050_RLatLon0.09_PT022H.grib2 2026-04-27 20:45 312K
20260427T18Z_MSC_RDPS_GeopotentialHeight_IsbL-0100_RLatLon0.09_PT022H.grib2 2026-04-27 20:45 290K
20260427T18Z_MSC_RDPS_GeopotentialHeight_IsbL-0150_RLatLon0.09_PT022H.grib2 2026-04-27 20:45 231K
20260427T18Z_MSC_RDPS_GeopotentialHeight_IsbL-0175_RLatLon0.09_PT022H.grib2 2026-04-27 20:45 265K
20260427T18Z_MSC_RDPS_GeopotentialHeight_IsbL-0200_RLatLon0.09_PT022H.grib2 2026-04-27 20:45 268K
20260427T18Z_MSC_RDPS_GeopotentialHeight_IsbL-0225_RLatLon0.09_PT022H.grib2 2026-04-27 20:45 268K
20260427T18Z_MSC_RDPS_GeopotentialHeight_IsbL-0250_RLatLon0.09_PT022H.grib2 2026-04-27 20:45 269K
20260427T18Z_MSC_RDPS_GeopotentialHeight_IsbL-0275_RLatLon0.09_PT022H.grib2 2026-04-27 20:45 268K
20260427T18Z_MSC_RDPS_GeopotentialHeight_IsbL-0300_RLatLon0.09_PT022H.grib2 2026-04-27 20:45 268K
20260427T18Z_MSC_RDPS_GeopotentialHeight_IsbL-0350_RLatLon0.09_PT022H.grib2 2026-04-27 20:45 234K
20260427T18Z_MSC_RDPS_GeopotentialHeight_IsbL-0400_RLatLon0.09_PT022H.grib2 2026-04-27 20:45 230K
20260427T18Z_MSC_RDPS_GeopotentialHeight_IsbL-0450_RLatLon0.09_PT022H.grib2 2026-04-27 20:45 226K
20260427T18Z_MSC_RDPS_GeopotentialHeight_IsbL-0500_RLatLon0.09_PT022H.grib2 2026-04-27 20:45 293K
20260427T18Z_MSC_RDPS_GeopotentialHeight_IsbL-0550_RLatLon0.09_PT022H.grib2 2026-04-27 20:45 289K
20260427T18Z_MSC_RDPS_GeopotentialHeight_IsbL-0600_RLatLon0.09_PT022H.grib2 2026-04-27 20:45 285K
20260427T18Z_MSC_RDPS_GeopotentialHeight_IsbL-0650_RLatLon0.09_PT022H.grib2 2026-04-27 20:45 255K
20260427T18Z_MSC_RDPS_GeopotentialHeight_IsbL-0700_RLatLon0.09_PT022H.grib2 2026-04-27 20:45 254K
20260427T18Z_MSC_RDPS_GeopotentialHeight_IsbL-0750_RLatLon0.09_PT022H.grib2 2026-04-27 20:45 339K
20260427T18Z_MSC_RDPS_GeopotentialHeight_IsbL-0800_RLatLon0.09_PT022H.grib2 2026-04-27 20:45 348K
20260427T18Z_MSC_RDPS_GeopotentialHeight_IsbL-0850_RLatLon0.09_PT022H.grib2 2026-04-27 20:45 360K
20260427T18Z_MSC_RDPS_GeopotentialHeight_IsbL-0875_RLatLon0.09_PT022H.grib2 2026-04-27 20:45 364K
20260427T18Z_MSC_RDPS_GeopotentialHeight_IsbL-0900_RLatLon0.09_PT022H.grib2 2026-04-27 20:45 368K
20260427T18Z_MSC_RDPS_GeopotentialHeight_IsbL-0925_RLatLon0.09_PT022H.grib2 2026-04-27 20:45 370K
20260427T18Z_MSC_RDPS_GeopotentialHeight_IsbL-0950_RLatLon0.09_PT022H.grib2 2026-04-27 20:45 375K
20260427T18Z_MSC_RDPS_GeopotentialHeight_IsbL-0970_RLatLon0.09_PT022H.grib2 2026-04-27 20:45 414K
20260427T18Z_MSC_RDPS_GeopotentialHeight_IsbL-0985_RLatLon0.09_PT022H.grib2 2026-04-27 20:45 424K
20260427T18Z_MSC_RDPS_GeopotentialHeight_IsbL-1000_RLatLon0.09_PT022H.grib2 2026-04-27 20:45 437K
20260427T18Z_MSC_RDPS_GeopotentialHeight_IsbL-1015_RLatLon0.09_PT022H.grib2 2026-04-27 20:45 454K
20260427T18Z_MSC_RDPS_Humidex_Sfc_RLatLon0.09_PT022H.grib2 2026-04-27 20:45 2.4M
20260427T18Z_MSC_RDPS_IcePellets-Accum1h_Sfc_RLatLon0.09_PT022H.grib2 2026-04-27 20:45 9.9K
20260427T18Z_MSC_RDPS_IcePellets-Accum_Sfc_RLatLon0.09_PT022H.grib2 2026-04-27 20:45 17K
20260427T18Z_MSC_RDPS_KIndex_Sfc_RLatLon0.09_PT022H.grib2 2026-04-27 20:45 2.4M
20260427T18Z_MSC_RDPS_LatentHeatNetFlux_Sfc_RLatLon0.09_PT022H.grib2 2026-04-27 20:45 304K
20260427T18Z_MSC_RDPS_LiftedIndex-MU-VT_IsbL-0500_RLatLon0.09_PT022H.grib2 2026-04-27 20:45 2.4M
20260427T18Z_MSC_RDPS_NetLongwaveRadiationFlux-Accum_Sfc_RLatLon0.09_PT022H.grib2 2026-04-27 20:45 566K
20260427T18Z_MSC_RDPS_NetShortwaveRadiationFlux-Accum_Sfc_RLatLon0.09_PT022H.grib2 2026-04-27 20:45 612K
20260427T18Z_MSC_RDPS_PlanetaryBoundaryLayerHeight_Sfc_RLatLon0.09_PT022H.grib2 2026-04-27 20:45 1.2M
20260427T18Z_MSC_RDPS_Precip-Accum1h_Sfc_RLatLon0.09_PT022H.grib2 2026-04-27 20:45 1.2M
20260427T18Z_MSC_RDPS_Precip-Accum_Sfc_RLatLon0.09_PT022H.grib2 2026-04-27 20:45 1.8M
20260427T18Z_MSC_RDPS_PrecipRate_Sfc_RLatLon0.09_PT022H.grib2 2026-04-27 20:45 188K
20260427T18Z_MSC_RDPS_PrecipType-Instant_Sfc_RLatLon0.09_PT022H.grib2 2026-04-27 20:45 560K
20260427T18Z_MSC_RDPS_Pressure-Trend3h_Sfc_RLatLon0.09_PT022H.grib2 2026-04-27 20:45 1.2M
20260427T18Z_MSC_RDPS_Pressure_MSL_RLatLon0.09_PT022H.grib2 2026-04-27 20:45 331K
20260427T18Z_MSC_RDPS_Pressure_PVU-1.5_RLatLon0.09_PT022H.grib2 2026-04-27 20:45 2.3M
20260427T18Z_MSC_RDPS_Pressure_PVU-1_RLatLon0.09_PT022H.grib2 2026-04-27 20:45 2.4M
20260427T18Z_MSC_RDPS_Pressure_PVU-2_RLatLon0.09_PT022H.grib2 2026-04-27 20:45 2.4M
20260427T18Z_MSC_RDPS_Pressure_Sfc_RLatLon0.09_PT022H.grib2 2026-04-27 20:45 502K
20260427T18Z_MSC_RDPS_RadiativeTemp_Sfc_RLatLon0.09_PT022H.grib2 2026-04-27 20:45 321K
20260427T18Z_MSC_RDPS_Rain-Accum1h_Sfc_RLatLon0.09_PT022H.grib2 2026-04-27 20:45 593K
20260427T18Z_MSC_RDPS_Rain-Accum_Sfc_RLatLon0.09_PT022H.grib2 2026-04-27 20:45 1.3M
20260427T18Z_MSC_RDPS_RelativeHumidity_AGL-2m_RLatLon0.09_PT022H.grib2 2026-04-27 20:45 1.0M
20260427T18Z_MSC_RDPS_RelativeHumidity_IsbL-0010_RLatLon0.09_PT022H.grib2 2026-04-27 20:45 626K
20260427T18Z_MSC_RDPS_RelativeHumidity_IsbL-0020_RLatLon0.09_PT022H.grib2 2026-04-27 20:45 653K
20260427T18Z_MSC_RDPS_RelativeHumidity_IsbL-0030_RLatLon0.09_PT022H.grib2 2026-04-27 20:45 610K
20260427T18Z_MSC_RDPS_RelativeHumidity_IsbL-0050_RLatLon0.09_PT022H.grib2 2026-04-27 20:45 324K
20260427T18Z_MSC_RDPS_RelativeHumidity_IsbL-0100_RLatLon0.09_PT022H.grib2 2026-04-27 20:45 280K
20260427T18Z_MSC_RDPS_RelativeHumidity_IsbL-0150_RLatLon0.09_PT022H.grib2 2026-04-27 20:45 414K
20260427T18Z_MSC_RDPS_RelativeHumidity_IsbL-0175_RLatLon0.09_PT022H.grib2 2026-04-27 20:45 483K
20260427T18Z_MSC_RDPS_RelativeHumidity_IsbL-0200_RLatLon0.09_PT022H.grib2 2026-04-27 20:45 548K
20260427T18Z_MSC_RDPS_RelativeHumidity_IsbL-0225_RLatLon0.09_PT022H.grib2 2026-04-27 20:45 614K
20260427T18Z_MSC_RDPS_RelativeHumidity_IsbL-0250_RLatLon0.09_PT022H.grib2 2026-04-27 20:45 684K
20260427T18Z_MSC_RDPS_RelativeHumidity_IsbL-0275_RLatLon0.09_PT022H.grib2 2026-04-27 20:45 718K
20260427T18Z_MSC_RDPS_RelativeHumidity_IsbL-0300_RLatLon0.09_PT022H.grib2 2026-04-27 20:45 765K
20260427T18Z_MSC_RDPS_RelativeHumidity_IsbL-0350_RLatLon0.09_PT022H.grib2 2026-04-27 20:45 783K
20260427T18Z_MSC_RDPS_RelativeHumidity_IsbL-0400_RLatLon0.09_PT022H.grib2 2026-04-27 20:45 800K
20260427T18Z_MSC_RDPS_RelativeHumidity_IsbL-0450_RLatLon0.09_PT022H.grib2 2026-04-27 20:45 805K
20260427T18Z_MSC_RDPS_RelativeHumidity_IsbL-0500_RLatLon0.09_PT022H.grib2 2026-04-27 20:45 810K
20260427T18Z_MSC_RDPS_RelativeHumidity_IsbL-0550_RLatLon0.09_PT022H.grib2 2026-04-27 20:45 826K
20260427T18Z_MSC_RDPS_RelativeHumidity_IsbL-0600_RLatLon0.09_PT022H.grib2 2026-04-27 20:45 841K
20260427T18Z_MSC_RDPS_RelativeHumidity_IsbL-0650_RLatLon0.09_PT022H.grib2 2026-04-27 20:45 851K
20260427T18Z_MSC_RDPS_RelativeHumidity_IsbL-0700_RLatLon0.09_PT022H.grib2 2026-04-27 20:45 883K
20260427T18Z_MSC_RDPS_RelativeHumidity_IsbL-0750_RLatLon0.09_PT022H.grib2 2026-04-27 20:45 929K
20260427T18Z_MSC_RDPS_RelativeHumidity_IsbL-0800_RLatLon0.09_PT022H.grib2 2026-04-27 20:45 1.0M
20260427T18Z_MSC_RDPS_RelativeHumidity_IsbL-0850_RLatLon0.09_PT022H.grib2 2026-04-27 20:45 1.0M
20260427T18Z_MSC_RDPS_RelativeHumidity_IsbL-0875_RLatLon0.09_PT022H.grib2 2026-04-27 20:45 1.1M
20260427T18Z_MSC_RDPS_RelativeHumidity_IsbL-0900_RLatLon0.09_PT022H.grib2 2026-04-27 20:45 1.1M
20260427T18Z_MSC_RDPS_RelativeHumidity_IsbL-0925_RLatLon0.09_PT022H.grib2 2026-04-27 20:45 1.1M
20260427T18Z_MSC_RDPS_RelativeHumidity_IsbL-0950_RLatLon0.09_PT022H.grib2 2026-04-27 20:45 1.1M
20260427T18Z_MSC_RDPS_RelativeHumidity_IsbL-0970_RLatLon0.09_PT022H.grib2 2026-04-27 20:45 1.1M
20260427T18Z_MSC_RDPS_RelativeHumidity_IsbL-0985_RLatLon0.09_PT022H.grib2 2026-04-27 20:45 1.1M
20260427T18Z_MSC_RDPS_RelativeHumidity_IsbL-1000_RLatLon0.09_PT022H.grib2 2026-04-27 20:45 1.0M
20260427T18Z_MSC_RDPS_RelativeHumidity_IsbL-1015_RLatLon0.09_PT022H.grib2 2026-04-27 20:45 1.0M
20260427T18Z_MSC_RDPS_Runoff-Accum_Sfc_RLatLon0.09_PT022H.grib2 2026-04-27 20:45 47K
20260427T18Z_MSC_RDPS_SWEATIndex_Sfc_RLatLon0.09_PT022H.grib2 2026-04-27 20:45 2.4M
20260427T18Z_MSC_RDPS_SeeingIndex_EAtm_RLatLon0.09_PT022H.grib2 2026-04-27 20:45 1.0M
20260427T18Z_MSC_RDPS_SensibleHeatNetFlux_Sfc_RLatLon0.09_PT022H.grib2 2026-04-27 20:45 367K
20260427T18Z_MSC_RDPS_ShowalterIndex_IsbL-0500_RLatLon0.09_PT022H.grib2 2026-04-27 20:45 2.6M
20260427T18Z_MSC_RDPS_SkyTransparencyIndex_EAtm_RLatLon0.09_PT022H.grib2 2026-04-27 20:45 712K
20260427T18Z_MSC_RDPS_Snow-Accum1h_Sfc_RLatLon0.09_PT022H.grib2 2026-04-27 20:45 370K
20260427T18Z_MSC_RDPS_Snow-Accum_Sfc_RLatLon0.09_PT022H.grib2 2026-04-27 20:45 744K
20260427T18Z_MSC_RDPS_SnowDensity_Sfc_RLatLon0.09_PT022H.grib2 2026-04-27 20:45 181K
20260427T18Z_MSC_RDPS_SnowDepth_Sfc_RLatLon0.09_PT022H.grib2 2026-04-27 20:45 710K
20260427T18Z_MSC_RDPS_SoilTemp_DBS-0to10cm_RLatLon0.09_PT022H.grib2 2026-04-27 20:45 219K
20260427T18Z_MSC_RDPS_SoilTemp_Sfc_RLatLon0.09_PT022H.grib2 2026-04-27 20:45 286K
20260427T18Z_MSC_RDPS_SoilVolumetricIceContent_Sfc_RLatLon0.09_PT022H.grib2 2026-04-27 20:45 169K
20260427T18Z_MSC_RDPS_SoilVolumetricWaterContent_DBS-0to10cm_RLatLon0.09_PT022H.grib2 2026-04-27 20:45 261K
20260427T18Z_MSC_RDPS_SoilVolumetricWaterContent_DBS-0to1cm_RLatLon0.09_PT022H.grib2 2026-04-27 20:45 335K
20260427T18Z_MSC_RDPS_SpecificHumidity_AGL-120m_RLatLon0.09_PT022H.grib2 2026-04-27 20:45 499K
20260427T18Z_MSC_RDPS_SpecificHumidity_AGL-2m_RLatLon0.09_PT022H.grib2 2026-04-27 20:45 669K
20260427T18Z_MSC_RDPS_SpecificHumidity_AGL-40m_RLatLon0.09_PT022H.grib2 2026-04-27 20:45 503K
20260427T18Z_MSC_RDPS_SpecificHumidity_AGL-80m_RLatLon0.09_PT022H.grib2 2026-04-27 20:45 500K
20260427T18Z_MSC_RDPS_SpecificHumidity_IsbL-0001_RLatLon0.09_PT022H.grib2 2026-04-27 20:45 347K
20260427T18Z_MSC_RDPS_SpecificHumidity_IsbL-0005_RLatLon0.09_PT022H.grib2 2026-04-27 20:45 360K
20260427T18Z_MSC_RDPS_SpecificHumidity_IsbL-0010_RLatLon0.09_PT022H.grib2 2026-04-27 20:45 400K
20260427T18Z_MSC_RDPS_SpecificHumidity_IsbL-0020_RLatLon0.09_PT022H.grib2 2026-04-27 20:45 390K
20260427T18Z_MSC_RDPS_SpecificHumidity_IsbL-0030_RLatLon0.09_PT022H.grib2 2026-04-27 20:45 479K
20260427T18Z_MSC_RDPS_SpecificHumidity_IsbL-0050_RLatLon0.09_PT022H.grib2 2026-04-27 20:45 468K
20260427T18Z_MSC_RDPS_SpecificHumidity_IsbL-0100_RLatLon0.09_PT022H.grib2 2026-04-27 20:45 424K
20260427T18Z_MSC_RDPS_SpecificHumidity_IsbL-0150_RLatLon0.09_PT022H.grib2 2026-04-27 20:45 376K
20260427T18Z_MSC_RDPS_SpecificHumidity_IsbL-0175_RLatLon0.09_PT022H.grib2 2026-04-27 20:45 457K
20260427T18Z_MSC_RDPS_SpecificHumidity_IsbL-0200_RLatLon0.09_PT022H.grib2 2026-04-27 20:45 450K
20260427T18Z_MSC_RDPS_SpecificHumidity_IsbL-0225_RLatLon0.09_PT022H.grib2 2026-04-27 20:45 450K
20260427T18Z_MSC_RDPS_SpecificHumidity_IsbL-0250_RLatLon0.09_PT022H.grib2 2026-04-27 20:45 552K
20260427T18Z_MSC_RDPS_SpecificHumidity_IsbL-0275_RLatLon0.09_PT022H.grib2 2026-04-27 20:45 470K
20260427T18Z_MSC_RDPS_SpecificHumidity_IsbL-0300_RLatLon0.09_PT022H.grib2 2026-04-27 20:45 545K
20260427T18Z_MSC_RDPS_SpecificHumidity_IsbL-0350_RLatLon0.09_PT022H.grib2 2026-04-27 20:45 537K
20260427T18Z_MSC_RDPS_SpecificHumidity_IsbL-0400_RLatLon0.09_PT022H.grib2 2026-04-27 20:45 522K
20260427T18Z_MSC_RDPS_SpecificHumidity_IsbL-0450_RLatLon0.09_PT022H.grib2 2026-04-27 20:45 575K
20260427T18Z_MSC_RDPS_SpecificHumidity_IsbL-0500_RLatLon0.09_PT022H.grib2 2026-04-27 20:45 510K
20260427T18Z_MSC_RDPS_SpecificHumidity_IsbL-0550_RLatLon0.09_PT022H.grib2 2026-04-27 20:45 565K
20260427T18Z_MSC_RDPS_SpecificHumidity_IsbL-0600_RLatLon0.09_PT022H.grib2 2026-04-27 20:45 630K
20260427T18Z_MSC_RDPS_SpecificHumidity_IsbL-0650_RLatLon0.09_PT022H.grib2 2026-04-27 20:45 545K
20260427T18Z_MSC_RDPS_SpecificHumidity_IsbL-0700_RLatLon0.09_PT022H.grib2 2026-04-27 20:45 588K
20260427T18Z_MSC_RDPS_SpecificHumidity_IsbL-0750_RLatLon0.09_PT022H.grib2 2026-04-27 20:45 645K
20260427T18Z_MSC_RDPS_SpecificHumidity_IsbL-0800_RLatLon0.09_PT022H.grib2 2026-04-27 20:45 731K
20260427T18Z_MSC_RDPS_SpecificHumidity_IsbL-0850_RLatLon0.09_PT022H.grib2 2026-04-27 20:45 803K
20260427T18Z_MSC_RDPS_SpecificHumidity_IsbL-0875_RLatLon0.09_PT022H.grib2 2026-04-27 20:45 830K
20260427T18Z_MSC_RDPS_SpecificHumidity_IsbL-0900_RLatLon0.09_PT022H.grib2 2026-04-27 20:45 844K
20260427T18Z_MSC_RDPS_SpecificHumidity_IsbL-0925_RLatLon0.09_PT022H.grib2 2026-04-27 20:45 847K
20260427T18Z_MSC_RDPS_SpecificHumidity_IsbL-0950_RLatLon0.09_PT022H.grib2 2026-04-27 20:45 706K
20260427T18Z_MSC_RDPS_SpecificHumidity_IsbL-0970_RLatLon0.09_PT022H.grib2 2026-04-27 20:45 699K
20260427T18Z_MSC_RDPS_SpecificHumidity_IsbL-0985_RLatLon0.09_PT022H.grib2 2026-04-27 20:45 694K
20260427T18Z_MSC_RDPS_SpecificHumidity_IsbL-1000_RLatLon0.09_PT022H.grib2 2026-04-27 20:45 689K
20260427T18Z_MSC_RDPS_SpecificHumidity_IsbL-1015_RLatLon0.09_PT022H.grib2 2026-04-27 20:45 682K
20260427T18Z_MSC_RDPS_SpecificHumidity_Sfc_RLatLon0.09_PT022H.grib2 2026-04-27 20:45 330K
20260427T18Z_MSC_RDPS_StormRelativeHelicity_EtaL-10000_RLatLon0.09_PT022H.grib2 2026-04-27 20:45 1.1M
20260427T18Z_MSC_RDPS_StormSeverityIndex_EtaL-10000_RLatLon0.09_PT022H.grib2 2026-04-27 20:45 1.2M
20260427T18Z_MSC_RDPS_Thickness_IsbL-0850to0700_RLatLon0.09_PT022H.grib2 2026-04-27 20:45 177K
20260427T18Z_MSC_RDPS_Thickness_IsbL-1000to0500_RLatLon0.09_PT022H.grib2 2026-04-27 20:45 200K
20260427T18Z_MSC_RDPS_Thickness_IsbL-1000to0850_RLatLon0.09_PT022H.grib2 2026-04-27 20:45 190K
20260427T18Z_MSC_RDPS_TotalCloudCover_Sfc_RLatLon0.09_PT022H.grib2 2026-04-27 20:45 654K
20260427T18Z_MSC_RDPS_TotalTotalsIndex_Sfc_RLatLon0.09_PT022H.grib2 2026-04-27 20:45 2.4M
20260427T18Z_MSC_RDPS_UVIndex-ClearSky_Sfc_RLatLon0.09_PT022H.grib2 2026-04-27 20:45 206K
20260427T18Z_MSC_RDPS_UVIndex_Sfc_RLatLon0.09_PT022H.grib2 2026-04-27 20:45 469K
20260427T18Z_MSC_RDPS_UpwardLongwaveRadiationFlux_NTAtm_RLatLon0.09_PT022H.grib2 2026-04-27 20:45 494K
20260427T18Z_MSC_RDPS_UpwardShortwaveRadiationFlux_NTAtm_RLatLon0.09_PT022H.grib2 2026-04-27 20:45 513K
20260427T18Z_MSC_RDPS_VerticalVelocity_IsbL-0250_RLatLon0.09_PT022H.grib2 2026-04-27 20:45 557K
20260427T18Z_MSC_RDPS_VerticalVelocity_IsbL-0500_RLatLon0.09_PT022H.grib2 2026-04-27 20:45 546K
20260427T18Z_MSC_RDPS_VerticalVelocity_IsbL-0700_RLatLon0.09_PT022H.grib2 2026-04-27 20:45 593K
20260427T18Z_MSC_RDPS_VerticalVelocity_IsbL-0850_RLatLon0.09_PT022H.grib2 2026-04-27 20:45 714K
20260427T18Z_MSC_RDPS_VerticalWindShear_EtaL-6500_RLatLon0.09_PT022H.grib2 2026-04-27 20:45 1.2M
20260427T18Z_MSC_RDPS_WindChill_Sfc_RLatLon0.09_PT022H.grib2 2026-04-27 20:45 1.1M
20260427T18Z_MSC_RDPS_WindDir_AGL-10m_RLatLon0.09_PT022H.grib2 2026-04-27 20:45 1.0M
20260427T18Z_MSC_RDPS_WindDir_AGL-120m_RLatLon0.09_PT022H.grib2 2026-04-27 20:45 621K
20260427T18Z_MSC_RDPS_WindDir_AGL-40m_RLatLon0.09_PT022H.grib2 2026-04-27 20:45 645K
20260427T18Z_MSC_RDPS_WindDir_AGL-80m_RLatLon0.09_PT022H.grib2 2026-04-27 20:45 631K
20260427T18Z_MSC_RDPS_WindDir_IsbL-0001_RLatLon0.09_PT022H.grib2 2026-04-27 20:45 295K
20260427T18Z_MSC_RDPS_WindDir_IsbL-0005_RLatLon0.09_PT022H.grib2 2026-04-27 20:45 370K
20260427T18Z_MSC_RDPS_WindDir_IsbL-0010_RLatLon0.09_PT022H.grib2 2026-04-27 20:45 363K
20260427T18Z_MSC_RDPS_WindDir_IsbL-0020_RLatLon0.09_PT022H.grib2 2026-04-27 20:45 407K
20260427T18Z_MSC_RDPS_WindDir_IsbL-0030_RLatLon0.09_PT022H.grib2 2026-04-27 20:45 406K
20260427T18Z_MSC_RDPS_WindDir_IsbL-0050_RLatLon0.09_PT022H.grib2 2026-04-27 20:45 430K
20260427T18Z_MSC_RDPS_WindDir_IsbL-0100_RLatLon0.09_PT022H.grib2 2026-04-27 20:45 419K
20260427T18Z_MSC_RDPS_WindDir_IsbL-0150_RLatLon0.09_PT022H.grib2 2026-04-27 20:45 419K
20260427T18Z_MSC_RDPS_WindDir_IsbL-0175_RLatLon0.09_PT022H.grib2 2026-04-27 20:45 436K
20260427T18Z_MSC_RDPS_WindDir_IsbL-0200_RLatLon0.09_PT022H.grib2 2026-04-27 20:45 443K
20260427T18Z_MSC_RDPS_WindDir_IsbL-0225_RLatLon0.09_PT022H.grib2 2026-04-27 20:45 445K
20260427T18Z_MSC_RDPS_WindDir_IsbL-0250_RLatLon0.09_PT022H.grib2 2026-04-27 20:45 449K
20260427T18Z_MSC_RDPS_WindDir_IsbL-0275_RLatLon0.09_PT022H.grib2 2026-04-27 20:45 470K
20260427T18Z_MSC_RDPS_WindDir_IsbL-0300_RLatLon0.09_PT022H.grib2 2026-04-27 20:45 468K
20260427T18Z_MSC_RDPS_WindDir_IsbL-0350_RLatLon0.09_PT022H.grib2 2026-04-27 20:45 491K
20260427T18Z_MSC_RDPS_WindDir_IsbL-0400_RLatLon0.09_PT022H.grib2 2026-04-27 20:45 515K
20260427T18Z_MSC_RDPS_WindDir_IsbL-0450_RLatLon0.09_PT022H.grib2 2026-04-27 20:45 530K
20260427T18Z_MSC_RDPS_WindDir_IsbL-0500_RLatLon0.09_PT022H.grib2 2026-04-27 20:45 543K
20260427T18Z_MSC_RDPS_WindDir_IsbL-0550_RLatLon0.09_PT022H.grib2 2026-04-27 20:45 553K
20260427T18Z_MSC_RDPS_WindDir_IsbL-0600_RLatLon0.09_PT022H.grib2 2026-04-27 20:45 578K
20260427T18Z_MSC_RDPS_WindDir_IsbL-0650_RLatLon0.09_PT022H.grib2 2026-04-27 20:45 623K
20260427T18Z_MSC_RDPS_WindDir_IsbL-0700_RLatLon0.09_PT022H.grib2 2026-04-27 20:45 661K
20260427T18Z_MSC_RDPS_WindDir_IsbL-0750_RLatLon0.09_PT022H.grib2 2026-04-27 20:45 708K
20260427T18Z_MSC_RDPS_WindDir_IsbL-0800_RLatLon0.09_PT022H.grib2 2026-04-27 20:45 778K
20260427T18Z_MSC_RDPS_WindDir_IsbL-0850_RLatLon0.09_PT022H.grib2 2026-04-27 20:45 858K
20260427T18Z_MSC_RDPS_WindDir_IsbL-0875_RLatLon0.09_PT022H.grib2 2026-04-27 20:45 889K
20260427T18Z_MSC_RDPS_WindDir_IsbL-0900_RLatLon0.09_PT022H.grib2 2026-04-27 20:45 907K
20260427T18Z_MSC_RDPS_WindDir_IsbL-0925_RLatLon0.09_PT022H.grib2 2026-04-27 20:45 916K
20260427T18Z_MSC_RDPS_WindDir_IsbL-0950_RLatLon0.09_PT022H.grib2 2026-04-27 20:45 919K
20260427T18Z_MSC_RDPS_WindDir_IsbL-0970_RLatLon0.09_PT022H.grib2 2026-04-27 20:45 927K
20260427T18Z_MSC_RDPS_WindDir_IsbL-0985_RLatLon0.09_PT022H.grib2 2026-04-27 20:45 936K
20260427T18Z_MSC_RDPS_WindDir_IsbL-1000_RLatLon0.09_PT022H.grib2 2026-04-27 20:45 952K
20260427T18Z_MSC_RDPS_WindDir_IsbL-1015_RLatLon0.09_PT022H.grib2 2026-04-27 20:45 969K
20260427T18Z_MSC_RDPS_WindGust-Max_AGL-10m_RLatLon0.09_PT022H.grib2 2026-04-27 20:45 954K
20260427T18Z_MSC_RDPS_WindGust-Min_AGL-10m_RLatLon0.09_PT022H.grib2 2026-04-27 20:45 1.0M
20260427T18Z_MSC_RDPS_WindGust_AGL-10m_RLatLon0.09_PT022H.grib2 2026-04-27 20:45 1.0M
20260427T18Z_MSC_RDPS_WindSpeed_AGL-10m_RLatLon0.09_PT022H.grib2 2026-04-27 20:45 850K
20260427T18Z_MSC_RDPS_WindSpeed_AGL-120m_RLatLon0.09_PT022H.grib2 2026-04-27 20:45 541K
20260427T18Z_MSC_RDPS_WindSpeed_AGL-40m_RLatLon0.09_PT022H.grib2 2026-04-27 20:45 545K
20260427T18Z_MSC_RDPS_WindSpeed_AGL-80m_RLatLon0.09_PT022H.grib2 2026-04-27 20:45 542K
20260427T18Z_MSC_RDPS_WindSpeed_IsbL-0001_RLatLon0.09_PT022H.grib2 2026-04-27 20:45 335K
20260427T18Z_MSC_RDPS_WindSpeed_IsbL-0005_RLatLon0.09_PT022H.grib2 2026-04-27 20:45 298K
20260427T18Z_MSC_RDPS_WindSpeed_IsbL-0010_RLatLon0.09_PT022H.grib2 2026-04-27 20:45 311K
20260427T18Z_MSC_RDPS_WindSpeed_IsbL-0020_RLatLon0.09_PT022H.grib2 2026-04-27 20:45 329K
20260427T18Z_MSC_RDPS_WindSpeed_IsbL-0030_RLatLon0.09_PT022H.grib2 2026-04-27 20:45 323K
20260427T18Z_MSC_RDPS_WindSpeed_IsbL-0050_RLatLon0.09_PT022H.grib2 2026-04-27 20:45 355K
20260427T18Z_MSC_RDPS_WindSpeed_IsbL-0100_RLatLon0.09_PT022H.grib2 2026-04-27 20:45 486K
20260427T18Z_MSC_RDPS_WindSpeed_IsbL-0150_RLatLon0.09_PT022H.grib2 2026-04-27 20:45 389K
20260427T18Z_MSC_RDPS_WindSpeed_IsbL-0175_RLatLon0.09_PT022H.grib2 2026-04-27 20:45 438K
20260427T18Z_MSC_RDPS_WindSpeed_IsbL-0200_RLatLon0.09_PT022H.grib2 2026-04-27 20:45 451K
20260427T18Z_MSC_RDPS_WindSpeed_IsbL-0225_RLatLon0.09_PT022H.grib2 2026-04-27 20:45 456K
20260427T18Z_MSC_RDPS_WindSpeed_IsbL-0250_RLatLon0.09_PT022H.grib2 2026-04-27 20:45 441K
20260427T18Z_MSC_RDPS_WindSpeed_IsbL-0275_RLatLon0.09_PT022H.grib2 2026-04-27 20:45 464K
20260427T18Z_MSC_RDPS_WindSpeed_IsbL-0300_RLatLon0.09_PT022H.grib2 2026-04-27 20:45 461K
20260427T18Z_MSC_RDPS_WindSpeed_IsbL-0350_RLatLon0.09_PT022H.grib2 2026-04-27 20:45 469K
20260427T18Z_MSC_RDPS_WindSpeed_IsbL-0400_RLatLon0.09_PT022H.grib2 2026-04-27 20:45 472K
20260427T18Z_MSC_RDPS_WindSpeed_IsbL-0450_RLatLon0.09_PT022H.grib2 2026-04-27 20:45 587K
20260427T18Z_MSC_RDPS_WindSpeed_IsbL-0500_RLatLon0.09_PT022H.grib2 2026-04-27 20:45 583K
20260427T18Z_MSC_RDPS_WindSpeed_IsbL-0550_RLatLon0.09_PT022H.grib2 2026-04-27 20:45 582K
20260427T18Z_MSC_RDPS_WindSpeed_IsbL-0600_RLatLon0.09_PT022H.grib2 2026-04-27 20:45 591K
20260427T18Z_MSC_RDPS_WindSpeed_IsbL-0650_RLatLon0.09_PT022H.grib2 2026-04-27 20:45 611K
20260427T18Z_MSC_RDPS_WindSpeed_IsbL-0700_RLatLon0.09_PT022H.grib2 2026-04-27 20:45 631K
20260427T18Z_MSC_RDPS_WindSpeed_IsbL-0750_RLatLon0.09_PT022H.grib2 2026-04-27 20:45 659K
20260427T18Z_MSC_RDPS_WindSpeed_IsbL-0800_RLatLon0.09_PT022H.grib2 2026-04-27 20:45 708K
20260427T18Z_MSC_RDPS_WindSpeed_IsbL-0850_RLatLon0.09_PT022H.grib2 2026-04-27 20:45 769K
20260427T18Z_MSC_RDPS_WindSpeed_IsbL-0875_RLatLon0.09_PT022H.grib2 2026-04-27 20:45 793K
20260427T18Z_MSC_RDPS_WindSpeed_IsbL-0900_RLatLon0.09_PT022H.grib2 2026-04-27 20:45 807K
20260427T18Z_MSC_RDPS_WindSpeed_IsbL-0925_RLatLon0.09_PT022H.grib2 2026-04-27 20:45 863K
20260427T18Z_MSC_RDPS_WindSpeed_IsbL-0950_RLatLon0.09_PT022H.grib2 2026-04-27 20:45 863K
20260427T18Z_MSC_RDPS_WindSpeed_IsbL-0970_RLatLon0.09_PT022H.grib2 2026-04-27 20:45 864K
20260427T18Z_MSC_RDPS_WindSpeed_IsbL-0985_RLatLon0.09_PT022H.grib2 2026-04-27 20:45 858K
20260427T18Z_MSC_RDPS_WindSpeed_IsbL-1000_RLatLon0.09_PT022H.grib2 2026-04-27 20:45 856K
20260427T18Z_MSC_RDPS_WindSpeed_IsbL-1015_RLatLon0.09_PT022H.grib2 2026-04-27 20:45 849K
20260427T18Z_MSC_RDPS_WindU_AGL-10m_RLatLon0.09_PT022H.grib2 2026-04-27 20:45 439K
20260427T18Z_MSC_RDPS_WindU_AGL-120m_RLatLon0.09_PT022H.grib2 2026-04-27 20:45 421K
20260427T18Z_MSC_RDPS_WindU_AGL-40m_RLatLon0.09_PT022H.grib2 2026-04-27 20:45 542K
20260427T18Z_MSC_RDPS_WindU_AGL-80m_RLatLon0.09_PT022H.grib2 2026-04-27 20:45 422K
20260427T18Z_MSC_RDPS_WindU_IsbL-0001_RLatLon0.09_PT022H.grib2 2026-04-27 20:45 296K
20260427T18Z_MSC_RDPS_WindU_IsbL-0005_RLatLon0.09_PT022H.grib2 2026-04-27 20:45 335K
20260427T18Z_MSC_RDPS_WindU_IsbL-0010_RLatLon0.09_PT022H.grib2 2026-04-27 20:45 302K
20260427T18Z_MSC_RDPS_WindU_IsbL-0020_RLatLon0.09_PT022H.grib2 2026-04-27 20:45 326K
20260427T18Z_MSC_RDPS_WindU_IsbL-0030_RLatLon0.09_PT022H.grib2 2026-04-27 20:45 353K
20260427T18Z_MSC_RDPS_WindU_IsbL-0050_RLatLon0.09_PT022H.grib2 2026-04-27 20:45 382K
20260427T18Z_MSC_RDPS_WindU_IsbL-0100_RLatLon0.09_PT022H.grib2 2026-04-27 20:45 343K
20260427T18Z_MSC_RDPS_WindU_IsbL-0150_RLatLon0.09_PT022H.grib2 2026-04-27 20:45 405K
20260427T18Z_MSC_RDPS_WindU_IsbL-0175_RLatLon0.09_PT022H.grib2 2026-04-27 20:45 431K
20260427T18Z_MSC_RDPS_WindU_IsbL-0200_RLatLon0.09_PT022H.grib2 2026-04-27 20:45 343K
20260427T18Z_MSC_RDPS_WindU_IsbL-0225_RLatLon0.09_PT022H.grib2 2026-04-27 20:45 348K
20260427T18Z_MSC_RDPS_WindU_IsbL-0250_RLatLon0.09_PT022H.grib2 2026-04-27 20:45 452K
20260427T18Z_MSC_RDPS_WindU_IsbL-0275_RLatLon0.09_PT022H.grib2 2026-04-27 20:45 471K
20260427T18Z_MSC_RDPS_WindU_IsbL-0300_RLatLon0.09_PT022H.grib2 2026-04-27 20:45 465K
20260427T18Z_MSC_RDPS_WindU_IsbL-0350_RLatLon0.09_PT022H.grib2 2026-04-27 20:45 471K
20260427T18Z_MSC_RDPS_WindU_IsbL-0400_RLatLon0.09_PT022H.grib2 2026-04-27 20:45 474K
20260427T18Z_MSC_RDPS_WindU_IsbL-0450_RLatLon0.09_PT022H.grib2 2026-04-27 20:45 472K
20260427T18Z_MSC_RDPS_WindU_IsbL-0500_RLatLon0.09_PT022H.grib2 2026-04-27 20:45 471K
20260427T18Z_MSC_RDPS_WindU_IsbL-0550_RLatLon0.09_PT022H.grib2 2026-04-27 20:45 454K
20260427T18Z_MSC_RDPS_WindU_IsbL-0600_RLatLon0.09_PT022H.grib2 2026-04-27 20:45 462K
20260427T18Z_MSC_RDPS_WindU_IsbL-0650_RLatLon0.09_PT022H.grib2 2026-04-27 20:45 480K
20260427T18Z_MSC_RDPS_WindU_IsbL-0700_RLatLon0.09_PT022H.grib2 2026-04-27 20:45 499K
20260427T18Z_MSC_RDPS_WindU_IsbL-0750_RLatLon0.09_PT022H.grib2 2026-04-27 20:45 525K
20260427T18Z_MSC_RDPS_WindU_IsbL-0800_RLatLon0.09_PT022H.grib2 2026-04-27 20:45 571K
20260427T18Z_MSC_RDPS_WindU_IsbL-0850_RLatLon0.09_PT022H.grib2 2026-04-27 20:45 634K
20260427T18Z_MSC_RDPS_WindU_IsbL-0875_RLatLon0.09_PT022H.grib2 2026-04-27 20:45 652K
20260427T18Z_MSC_RDPS_WindU_IsbL-0900_RLatLon0.09_PT022H.grib2 2026-04-27 20:45 663K
20260427T18Z_MSC_RDPS_WindU_IsbL-0925_RLatLon0.09_PT022H.grib2 2026-04-27 20:45 668K
20260427T18Z_MSC_RDPS_WindU_IsbL-0950_RLatLon0.09_PT022H.grib2 2026-04-27 20:45 658K
20260427T18Z_MSC_RDPS_WindU_IsbL-0970_RLatLon0.09_PT022H.grib2 2026-04-27 20:45 659K
20260427T18Z_MSC_RDPS_WindU_IsbL-0985_RLatLon0.09_PT022H.grib2 2026-04-27 20:45 657K
20260427T18Z_MSC_RDPS_WindU_IsbL-1000_RLatLon0.09_PT022H.grib2 2026-04-27 20:45 655K
20260427T18Z_MSC_RDPS_WindU_IsbL-1015_RLatLon0.09_PT022H.grib2 2026-04-27 20:45 790K
20260427T18Z_MSC_RDPS_WindV_AGL-10m_RLatLon0.09_PT022H.grib2 2026-04-27 20:45 437K
20260427T18Z_MSC_RDPS_WindV_AGL-120m_RLatLon0.09_PT022H.grib2 2026-04-27 20:45 536K
20260427T18Z_MSC_RDPS_WindV_AGL-40m_RLatLon0.09_PT022H.grib2 2026-04-27 20:45 539K
20260427T18Z_MSC_RDPS_WindV_AGL-80m_RLatLon0.09_PT022H.grib2 2026-04-27 20:45 537K
20260427T18Z_MSC_RDPS_WindV_IsbL-0001_RLatLon0.09_PT022H.grib2 2026-04-27 20:45 246K
20260427T18Z_MSC_RDPS_WindV_IsbL-0005_RLatLon0.09_PT022H.grib2 2026-04-27 20:45 290K
20260427T18Z_MSC_RDPS_WindV_IsbL-0010_RLatLon0.09_PT022H.grib2 2026-04-27 20:45 302K
20260427T18Z_MSC_RDPS_WindV_IsbL-0020_RLatLon0.09_PT022H.grib2 2026-04-27 20:45 321K
20260427T18Z_MSC_RDPS_WindV_IsbL-0030_RLatLon0.09_PT022H.grib2 2026-04-27 20:45 318K
20260427T18Z_MSC_RDPS_WindV_IsbL-0050_RLatLon0.09_PT022H.grib2 2026-04-27 20:45 349K
20260427T18Z_MSC_RDPS_WindV_IsbL-0100_RLatLon0.09_PT022H.grib2 2026-04-27 20:45 339K
20260427T18Z_MSC_RDPS_WindV_IsbL-0150_RLatLon0.09_PT022H.grib2 2026-04-27 20:45 403K
20260427T18Z_MSC_RDPS_WindV_IsbL-0175_RLatLon0.09_PT022H.grib2 2026-04-27 20:45 429K
20260427T18Z_MSC_RDPS_WindV_IsbL-0200_RLatLon0.09_PT022H.grib2 2026-04-27 20:45 342K
20260427T18Z_MSC_RDPS_WindV_IsbL-0225_RLatLon0.09_PT022H.grib2 2026-04-27 20:45 346K
20260427T18Z_MSC_RDPS_WindV_IsbL-0250_RLatLon0.09_PT022H.grib2 2026-04-27 20:45 347K
20260427T18Z_MSC_RDPS_WindV_IsbL-0275_RLatLon0.09_PT022H.grib2 2026-04-27 20:45 365K
20260427T18Z_MSC_RDPS_WindV_IsbL-0300_RLatLon0.09_PT022H.grib2 2026-04-27 20:45 361K
20260427T18Z_MSC_RDPS_WindV_IsbL-0350_RLatLon0.09_PT022H.grib2 2026-04-27 20:45 367K
20260427T18Z_MSC_RDPS_WindV_IsbL-0400_RLatLon0.09_PT022H.grib2 2026-04-27 20:45 472K
20260427T18Z_MSC_RDPS_WindV_IsbL-0450_RLatLon0.09_PT022H.grib2 2026-04-27 20:45 470K
20260427T18Z_MSC_RDPS_WindV_IsbL-0500_RLatLon0.09_PT022H.grib2 2026-04-27 20:45 467K
20260427T18Z_MSC_RDPS_WindV_IsbL-0550_RLatLon0.09_PT022H.grib2 2026-04-27 20:45 466K
20260427T18Z_MSC_RDPS_WindV_IsbL-0600_RLatLon0.09_PT022H.grib2 2026-04-27 20:45 475K
20260427T18Z_MSC_RDPS_WindV_IsbL-0650_RLatLon0.09_PT022H.grib2 2026-04-27 20:45 493K
20260427T18Z_MSC_RDPS_WindV_IsbL-0700_RLatLon0.09_PT022H.grib2 2026-04-27 20:45 510K
20260427T18Z_MSC_RDPS_WindV_IsbL-0750_RLatLon0.09_PT022H.grib2 2026-04-27 20:45 534K
20260427T18Z_MSC_RDPS_WindV_IsbL-0800_RLatLon0.09_PT022H.grib2 2026-04-27 20:45 576K
20260427T18Z_MSC_RDPS_WindV_IsbL-0850_RLatLon0.09_PT022H.grib2 2026-04-27 20:45 619K
20260427T18Z_MSC_RDPS_WindV_IsbL-0875_RLatLon0.09_PT022H.grib2 2026-04-27 20:45 641K
20260427T18Z_MSC_RDPS_WindV_IsbL-0900_RLatLon0.09_PT022H.grib2 2026-04-27 20:45 654K
20260427T18Z_MSC_RDPS_WindV_IsbL-0925_RLatLon0.09_PT022H.grib2 2026-04-27 20:45 659K
20260427T18Z_MSC_RDPS_WindV_IsbL-0950_RLatLon0.09_PT022H.grib2 2026-04-27 20:45 657K
20260427T18Z_MSC_RDPS_WindV_IsbL-0970_RLatLon0.09_PT022H.grib2 2026-04-27 20:45 656K
20260427T18Z_MSC_RDPS_WindV_IsbL-0985_RLatLon0.09_PT022H.grib2 2026-04-27 20:45 794K
20260427T18Z_MSC_RDPS_WindV_IsbL-1000_RLatLon0.09_PT022H.grib2 2026-04-27 20:45 792K
20260427T18Z_MSC_RDPS_WindV_IsbL-1015_RLatLon0.09_PT022H.grib2 2026-04-27 20:45 834K